Location: Newark
(44.3681°N, 100.3364°W)
Time: 19:47:42
(UTC+00:00)

Vanguard 1 - All Passes

Search period start: 21 February 2020 00:00
Search period end: 02 March 2020 00:00
Orbit: 650 x 3833 km, 34.2° (Epoch: 20 February)

Date Brightness Start Highest point End Pass type
(mag) Time Alt. Az. Time Alt. Az. Time Alt. Az.
21 Feb - 12:13:27 10° S 12:28:57 23° SE 12:41:48 10° E visible
21 Feb - 14:32:36 10° SW 14:52:36 44° SSE 15:05:39 10° E daylight
21 Feb - 16:57:49 10° WSW 17:15:51 55° S 17:25:54 10° ESE daylight
21 Feb - 19:24:42 10° W 19:37:10 40° SSW 19:44:20 10° SE daylight
21 Feb - 21:53:38 10° WSW 21:55:51 11° SW 21:57:50 10° SSW daylight
22 Feb - 12:32:01 10° SSW 12:49:49 29° SE 13:04:02 10° E visible
22 Feb - 14:53:08 10° SW 15:13:41 49° SSE 15:26:42 10° E daylight
22 Feb - 17:19:09 10° WSW 17:36:50 55° S 17:46:38 10° ESE daylight
22 Feb - 19:46:17 10° W 19:57:42 34° SSW 20:04:34 10° SSE daylight
23 Feb - 10:39:28 10° SSE 10:47:39 13° SE 10:55:28 10° ESE visible
23 Feb - 12:51:17 10° SSW 13:10:44 36° SSE 13:25:45 10° E visible
23 Feb - 15:13:57 10° WSW 15:34:47 54° S 15:47:40 10° E daylight
23 Feb - 17:40:34 10° W 17:57:46 53° SSW 18:07:18 10° ESE daylight
23 Feb - 20:08:00 10° W 20:18:07 27° SW 20:24:32 10° SSE daylight
24 Feb - 10:54:52 10° S 11:08:15 19° SE 11:20:38 10° E visible
24 Feb - 13:11:05 10° SSW 13:31:43 42° SSE 13:47:11 10° E daylight
24 Feb - 15:35:00 10° WSW 15:55:54 57° S 16:08:33 10° E daylight
24 Feb - 18:02:03 10° W 18:18:36 50° SSW 18:27:50 10° SE daylight
24 Feb - 20:30:01 10° W 20:38:23 21° SW 20:44:08 10° S daylight
25 Feb - 11:12:33 10° S 11:28:53 25° SE 11:43:44 10° E visible
25 Feb - 13:31:18 10° SW 13:52:46 48° SSE 14:08:24 10° E daylight
25 Feb - 15:56:13 10° WSW 16:17:01 59° S 16:29:22 10° ESE daylight
25 Feb - 18:23:37 10° W 18:39:20 45° SSW 18:48:16 10° SE daylight
25 Feb - 20:52:39 10° W 20:58:30 15° SW 21:03:01 10° SSW daylight
26 Feb - 11:31:16 10° SSW 11:49:37 31° SE 12:05:57 10° E visible
26 Feb - 13:51:50 10° SW 14:13:53 53° SSE 14:29:30 10° E daylight
26 Feb - 16:17:33 10° WSW 16:38:05 59° S 16:50:09 10° ESE daylight
26 Feb - 18:45:14 10° W 18:59:55 39° SSW 19:08:31 10° SSE daylight
27 Feb - 09:38:50 10° SSE 09:47:43 14° SE 09:56:38 10° ESE visible
27 Feb - 11:50:37 10° SSW 12:10:25 38° SSE 12:27:42 10° E visible
27 Feb - 14:12:38 10° WSW 14:35:02 57° SSE 14:50:31 10° E daylight
27 Feb - 16:39:00 10° W 16:59:07 57° SSW 17:10:50 10° ESE daylight
27 Feb - 19:07:00 10° W 19:20:21 32° SW 19:28:32 10° SSE daylight
28 Feb - 09:54:42 10° S 10:08:06 20° SE 10:21:36 10° E visible
28 Feb - 12:10:28 10° SW 12:31:19 44° SSE 12:49:10 10° E visible
28 Feb - 14:33:38 10° WSW 14:56:13 60° S 15:11:28 10° E daylight
28 Feb - 17:00:30 10° W 17:20:01 53° SSW 17:31:26 10° SE daylight
28 Feb - 19:29:01 10° W 19:40:37 26° SW 19:48:12 10° S daylight
29 Feb - 10:12:35 10° S 10:28:33 26° SE 10:44:42 10° E visible
29 Feb - 12:30:41 10° SW 12:52:19 50° SSE 13:10:28 10° E visible
29 Feb - 14:54:49 10° WSW 15:17:24 61° S 15:32:22 10° ESE daylight
29 Feb - 17:22:04 10° W 17:40:49 49° SSW 17:51:52 10° SE daylight
29 Feb - 19:51:28 10° W 20:00:44 19° SW 20:07:22 10° S daylight
01 Mar - 10:31:25 10° SSW 10:49:05 32° SE 11:06:58 10° E visible
01 Mar - 12:51:11 10° SW 13:13:24 55° SSE 13:31:39 10° E visible
01 Mar - 15:16:08 10° WSW 15:38:34 61° S 15:53:11 10° ESE daylight
01 Mar - 17:43:43 10° W 18:01:28 43° SSW 18:12:09 10° SE daylight
01 Mar - 20:15:00 10° W 20:20:44 13° SW 20:25:24 10° SSW daylight
